Showing default

COSMOS 2614, 68764

Orbit data source: Space-Track

COSMOS 2614, 68764 is a payload satellite owned by VVKO VKS (CIS) in SSO that was launched on Thu, 16 Apr 2026 UTC via a SOYUZ-2-1B launch vehicle from the Plesetsk Missile And Space Complex (PKMTR). Payload-class satellites include a variety of spacecraft equipped with specific instruments for various scientific and technological missions. These include communications satellites like Starlink; space stations such as the ISS; scientific satellites like the Hubble; Earth observation satellites from companies like Planet Labs, Umbra, and HawkEye 360; GPS; miniature CubeSats for education and research; and military/defense satellites.

Loading next visibility...
Identifier
68764, 2026-083K
Orbit
SSO
Country
Flag of CISCIS
Related business
Manufacturer
Unknown (RU)
Mission
Operational spacecraft
Bus & Motor
UNK, Unknown motor
Mass
~500 kg wet, ~500 kg dry
Launch date (UTC)
2026-04-16 (1 month ago)
Launch vehicle
SOYUZ-2-1B
Launch site
Plesetsk Missile And Space Complex (PKMTR)
Object type
Payload
Rocket body
Debris
Shape & HBR
Unknown shape, 14.5 m
Radar Cross Section
RCS unknown

Expand to show TLE details & history
Last TLE update: 9 hours ago

TLE from 9 hours ago
0 COSMOS 2614
1 68764U 26083K   26138.69469497  .00001037  00000-0  71569-4 0  9997
2 68764  96.9562 275.9433 0012659 152.7528 207.4368 15.07599338  4763
Epoch: 2026-05-18T16:40Z
TLE epoch observation values (Epoch: 2026-05-18T16:40:21.645Z)
Latitude
-0.00005°
Longitude
149.47385°
Altitude
554.405 km
Speed
7.58 km/s
True Right ascension
18h 23m 46s
True Declination
0° 00' 00"
Sunlit
Object was in full shadow at epoch
Visualization orbit readout
Latitude
Unknown
Longitude
Unknown
Altitude
Unknown
Speed
Unknown
Apparent Right ascension
Unknown
Apparent Declination
Unknown
Sunlit
N/A
Visualization observer readout
Local Sidereal Time
10:11:06
Azimuth
Unknown
Elevation
Unknown
Doppler factor
Unknown
Orbital elements
Apogee altitude
549.26 km
Perigee altitude
531.744 km
Semi-major axis
6,918.639 km
Eccentricity
0.00127
Inclination
96.9562°
RAAN
275.9433°
Arg. of periapsis
152.7528°
True anomaly
207.37005°
Mean anomaly
207.4368°
Eccentric anomaly
207.40342°
Mean motion
3.77148 °/min
Orbital period
95.45 mins
BSTAR
0.000071569
Loading maneuver chart data...
Computing Atmospheric mass density...
Loading historical data...
Loading historical data...
Loading historical data...
Loading historical data...
Loading historical data...
Loading historical data...
Loading historical data...

Documentation

Showing up to 5 results
|